DB0DUS-10 Weather Reports


Display with metric or nautical units.
time (UTC)temp
F
wind
direction
speed
MPH
gust
MPH
rain 1hr
in
rain 24hr
in
rain mn
in
humidity
%
barometer
mb
20260506100759 52 319 11.0 12.0 0.02 0.85 0.75 91 1007.3
20260506094300 52 338 4.0 9.0 0.02 0.84 0.74 92 1007.0
20260506093759 52 319 3.0 14.0 0.03 0.84 0.74 92 1007.0
20260506091801 52 312 8.0 10.0 0.03 0.84 0.74 92 1006.9
20260506090759 52 323 7.0 10.0 0.03 0.83 0.73 92 1006.8
20260506085300 52 358 3.0 12.0 0.03 0.82 0.72 93 1006.7
20260506083759 53 23 5.0 8.0 0.03 0.81 0.71 93 1006.5
20260506082800 52 355 4.0 7.0 0.03 0.81 0.71 93 1006.5
20260506080759 52 316 8.0 12.0 0.03 0.80 0.70 94 1006.4
20260506080300 52 305 11.0 14.0 0.04 0.80 0.70 94 1006.3
20260506071300 51 282 4.0 13.0 0.03 0.77 0.67 94 1006.4
20260506070759 51 28 6.0 12.0 0.03 0.77 0.67 94 1006.3
20260506062300 51 288 5.0 9.0 0.06 0.75 0.65 94 1006.2
20260506060759 51 8 5.0 8.0 0.06 0.74 0.64 94 1006.1
20260506050759 51 330 6.0 10.0 0.05 0.68 0.58 95 1006.0
20260506044300 51 113 2.0 7.0 0.08 0.66 0.56 95 1005.9
20260506043759 51 268 1.0 8.0 0.09 0.67 0.56 95 1006.0
20260506041801 51 317 1.0 7.0 0.13 0.65 0.54 95 1005.9
20260506040759 51 341 7.0 12.0 0.14 0.64 0.53 95 1005.9
20260506035300 51 16 3.0 12.0 0.13 0.61 0.50 95 1005.8
20260506033759 51 326 0.0 9.0 0.13 0.58 0.47 95 1005.9
20260506032800 51 268 5.0 10.0 0.10 0.54 0.43 95 1006.0
20260506030759 51 317 5.0 10.0 0.10 0.50 0.39 95 1006.1
20260506030300 51 316 5.0 9.0 0.11 0.49 0.38 94 1006.0
20260506023800 51 289 5.0 9.0 0.15 0.47 0.34 94 1006.3
20260506021300 51 336 4.0 9.0 0.14 0.43 0.30 94 1006.4
20260506020800 51 340 6.0 10.0 0.14 0.42 0.29 94 1006.4
20260506014800 51 286 8.0 9.0 0.09 0.35 0.22 94 1006.5
20260506013800 51 323 7.0 10.0 0.08 0.33 0.19 94 1006.5
20260506012353 51 307 4.0 10.0 0.07 0.31 0.17 94 1006.6
20260506012300 51 307 4.0 10.0 0.07 0.31 0.17 94 1006.6
20260506010800 51 315 3.0 11.0 0.07 0.29 0.15 94 1006.6
20260506005800 51 317 8.0 9.0 0.07 0.28 0.14 94 1006.7
20260506003800 52 338 6.0 10.0 0.06 0.25 0.11 94 1006.9
20260506003301 52 288 6.0 10.0 0.07 0.25 0.11 94 1006.9
20260506000800 52 317 6.0 10.0 0.06 0.22 0.08 94 1007.1
20260505234301 52 303 4.0 10.0 0.09 0.20 0.06 93 1007.4
20260505233800 52 312 7.0 10.0 0.08 0.19 0.05 93 1007.4
20260505231802 52 329 7.0 10.0 0.09 0.17 0.03 93 1007.5
20260505230800 52 324 9.0 10.0 0.09 0.16 0.02 93 1007.5
20260505225301 52 254 1.0 11.0 0.07 0.13 0.13 93 1007.6
20260505223800 52 326 2.0 9.0 0.06 0.11 0.11 92 1007.7
20260505222801 52 315 6.0 9.0 0.04 0.09 0.09 92 1007.7
20260505220800 52 347 2.0 8.0 0.03 0.07 0.07 92 1007.8
20260505220301 52 306 6.0 8.0 0.03 0.07 0.07 91 1007.7
20260505213800 53 272 2.0 9.0 0.01 0.05 0.05 91 1008.0
20260505211301 53 310 5.0 10.0 0.01 0.05 0.05 91 1008.2
20260505210800 53 310 5.0 11.0 0.00 0.04 0.04 91 1008.2
20260505204801 53 357 5.0 9.0 0.00 0.04 0.04 90 1008.2
20260505203800 53 317 7.0 11.0 0.00 0.05 0.04 90 1008.3
20260505202301 53 348 3.0 10.0 0.00 0.05 0.04 89 1008.3
20260505200800 53 327 6.0 9.0 0.00 0.05 0.04 88 1008.2
20260505195801 53 310 3.0 9.0 0.00 0.05 0.04 88 1008.3
20260505193800 53 327 4.0 10.0 0.00 0.05 0.04 87 1008.3
20260505193301 54 358 6.0 15.0 0.00 0.05 0.04 87 1008.3
20260505190800 54 358 6.0 10.0 0.00 0.05 0.04 86 1008.2
20260505184301 54 329 6.0 11.0 0.00 0.05 0.04 85 1008.1
20260505183800 54 310 8.0 11.0 0.00 0.05 0.04 85 1008.2
20260505181801 54 333 4.0 10.0 0.00 0.05 0.04 85 1008.2
20260505180800 55 315 9.0 12.0 0.00 0.05 0.04 84 1008.2
20260505175301 55 331 3.0 11.0 0.00 0.05 0.04 84 1008.2
20260505173800 55 43 2.0 12.0 0.00 0.05 0.04 84 1008.3
20260505172801 56 11 7.0 11.0 0.00 0.05 0.04 83 1008.3
20260505170801 56 46 5.0 10.0 0.00 0.05 0.04 83 1008.3
20260505170301 56 26 6.0 8.0 0.00 0.05 0.04 83 1008.2
20260505163801 56 302 14.0 14.0 0.00 0.07 0.04 82 1008.3
20260505161301 57 336 2.0 12.0 0.00 0.07 0.04 81 1008.4
20260505160801 57 0 9.0 12.0 0.00 0.07 0.04 81 1008.4
20260505152304 57 317 9.0 12.0 0.00 0.12 0.04 80 1008.7
20260505150801 58 22 7.0 15.0 0.00 0.12 0.04 79 1008.8
20260505123801 60 334 7.0 13.0 0.00 0.23 0.04 77 1009.5
20260505122802 60 310 5.0 12.0 0.00 0.23 0.04 79 1009.6
20260505120801 59 322 5.0 12.0 0.00 0.23 0.04 81 1009.6
20260505120452 59 351 6.0 11.0 0.00 0.23 0.04 81 1009.5
20260505120302 59 351 6.0 11.0 0.00 0.23 0.04 81 1009.5
20260505113801 59 312 9.0 13.0 0.00 0.23 0.04 82 1009.7
20260505111302 59 291 3.0 11.0 0.00 0.23 0.04 83 1009.8
20260505110801 58 334 9.0 11.0 0.00 0.23 0.04 83 1009.8